Location: Carbonear
(47.7333°N, 53.2500°W)
Time: 04:56:25
(UTC+00:00)

DIWATA 2B (PO-101) - Visible Passes

Search period start: 03 December 2023 00:00
Search period end: 13 December 2023 00:00
Orbit: 579 x 591 km, 98.0° (Epoch: 02 December)

Date Brightness Start Highest point End Pass type
(mag) Time Alt. Az. Time Alt. Az. Time Alt. Az.
03 Dec ? 21:15:31 10° NW 21:16:53 11° WNW 21:18:14 10° WNW visible
08 Dec ? 20:10:04 10° N 20:14:02 42° WNW 20:17:58 10° SW visible
09 Dec ? 20:16:31 10° N 20:20:23 37° WNW 20:24:13 10° SW visible
10 Dec ? 20:22:59 10° N 20:26:43 32° WNW 20:30:26 10° SW visible
11 Dec ? 20:29:26 10° N 20:33:03 28° WNW 20:36:36 10° SW visible
12 Dec ? 20:35:56 10° N 20:39:21 25° WNW 20:42:46 10° WSW visible
